• Join FlightAware (Why Join?)
  • Login
  • US Flag GB Flag 
22:35 EDT


 

Airport Tracker/Info


-or-


 

Live Flight TrackerFlight Track Log ✈ FLG3861 ✈ 07-Apr-2014 ✈ KDTW - KBGM

Flight Track Log - Related Links

Times and Time Zones

All times are in EDT time to prevent confusion due to time zone crossing. See the FLG3861 flight status page for this flight to view local times or setup timezone preferences in your user account.

Time Position Orientation Groundspeed Altitude Reporting Facility
EDT Latitude Longitude Course Direction KTS MPH feet Rate Location/Type
21:53 42.2272 -83.3364 39° Northeast 137 158 1,600  Level Cleveland Center
21:54 42.2594 -83.3014 39° Northeast 183 211 3,900 1,920 Climbing Cleveland Center
21:55 42.2836 -83.2786 35° Northeast 211 243 4,700 2,520 Climbing Cleveland Center
21:55 42.2914 -83.2381 75° East 242 278 6,500 3,120 Climbing Cleveland Center
21:56 42.2747 -83.1997 120° Southeast 250 288 7,900 1,980 Climbing Cleveland Center
21:57 42.2553 -83.0986 105° East 280 322 9,900 1,800 Climbing Cleveland Center
21:58 42.2550 -82.9547 90° East 340 391 11,600 1,500 Climbing Cleveland Center
21:59 42.2850 -82.8256 73° East 362 417 13,000 1,380 Climbing Cleveland Center
22:00 42.3156 -82.6900 73° East 379 436 14,500 1,380 Climbing Cleveland Center
22:01 42.3467 -82.5514 73° East 382 440 15,900 1,260 Climbing Cleveland Center
22:02 42.3672 -82.4094 79° East 391 450 17,100 1,260 Climbing Cleveland Center
22:03 42.3617 -82.2600 93° East 395 455 18,500 1,260 Climbing Cleveland Center
22:04 42.3539 -82.0881 93° East 400 460 19,700 1,020 Climbing Cleveland Center
22:05 42.3478 -81.9311 93° East 409 471 20,700 960 Climbing Cleveland Center
22:06 42.3389 -81.7714 94° East 416 479 21,700 1,020 Climbing Cleveland Center
22:07 42.3325 -81.6069 93° East 430 495 22,800 1,020 Climbing Cleveland Center
22:08 42.3244 -81.4425 94° East 431 496 23,800 960 Climbing Cleveland Center
22:09 42.3169 -81.2786 93° East 432 497 24,800 960 Climbing Cleveland Center
22:10 42.3086 -81.1147 94° East 433 498 25,800 960 Climbing Cleveland Center
22:11 42.2992 -80.9506 94° East 432 497 26,800 540 Climbing Cleveland Center
22:12 42.2919 -80.7856 93° East 433 498 27,000 60 Climbing Cleveland Center
22:13 42.2828 -80.6111 94° East 453 521 27,000  Level Cleveland Center
22:14 42.2711 -80.4308 95° East 470 541 27,000  Level Cleveland Center
22:15 42.2603 -80.2467 94° East 483 556 27,000  Level Cleveland Center
22:16 42.2492 -80.0600 95° East 490 564 27,000  Level Cleveland Center
22:17 42.2381 -79.8853 95° East 488 562 27,000  Level Cleveland Center
22:18 42.2247 -79.6722 95° East 481 554 27,000  Level Cleveland Center
22:19 42.2128 -79.4944 95° East 479 551 27,000  Level Cleveland Center
22:20 42.2017 -79.3167 95° East 479 551 27,100 -120 Climbing Cleveland Center
22:21 42.1897 -79.1414 95° East 477 549 26,800 -600 Descending Cleveland Center
22:22 42.1919 -78.9767 89° East 443 510 25,900 -1,140 Descending Cleveland Center
22:23 42.1942 -78.8206 89° East 426 490 24,500 -1,380 Descending Cleveland Center
22:24 42.1975 -78.6575 88° East 429 494 23,100 -1,140 Descending Cleveland Center
22:25 42.1992 -78.4642 89° East 436 502 22,200 -960 Descending Cleveland Center
22:27 42.2008 -78.3111 89° East 419 482 21,200 -600 Descending Cleveland Center
22:28 42.2025 -78.1614 89° East 407 468 21,000 -120 Descending Cleveland Center
22:29 42.2042 -78.0117 89° East 403 464 21,000  Level Cleveland Center
22:30 42.2061 -77.8553 89° East 416 479 21,000 -660 Level Cleveland Center
22:31 42.2075 -77.6994 89° East 423 487 19,700 -1,620 Descending Cleveland Center
22:32 42.2086 -77.5614 89° East 381 438 17,700 -1,380 Descending Cleveland Center
22:33 42.2097 -77.3997 89° East 365 420 17,000 -360 Descending Cleveland Center
22:34 42.2097 -77.2639 90° East 365 420 17,000  Level Cleveland Center
22:35 42.2106 -77.1258 89° East 367 422 17,000 -780 Level Cleveland Center
22:36 42.2108 -76.9875 90° East 370 426 15,500 -1,500 Descending Cleveland Center
22:37 42.2119 -76.8506 89° East 369 425 14,000 -1,500 Descending Cleveland Center
22:38 42.2103 -76.7125 91° East 369 425 12,500 -1,500 Descending Cleveland Center
22:39 42.2097 -76.5825 90° East 353 406 11,000 -1,500 Descending Cleveland Center
22:40 42.2100 -76.4642 90° East 322 371 9,500 -1,680 Descending Cleveland Center
22:41 42.2414 -76.3514 69° East 319 367 7,600 -2,040 Descending Cleveland Center
22:42 42.2889 -76.2667 53° Northeast 294 338 5,400 -1,620 Descending Cleveland Center
22:43 42.3464 -76.1850 46° Northeast 280 322 4,300 -720 Descending Cleveland Center
22:45 42.3231 -76.0825 107° East 165 190 3,300 -360 Descending New York Center
22:46 42.2867 -76.0544 150° Southeast 137 158 3,300 -300 Level New York Center
22:47 42.2569 -76.0239 143° Southeast 137 158 2,700 -540 Descending New York Center
22:48 42.2267 -75.9992 149° Southeast 127 146 2,300 -420 Descending New York Center